Regional Weather Roundup
Issued by NWS

Home | Current Version | Previous Version | Graphics & Text | Print | Product List | Glossary On
Versions: 1 2 3 4 5 6 7 8 9 10 11 12 13 14 15 16 17 18 19 20 21 22 23 24 25 26 27 28 29 30 31 32 33 34 35 36 37 38 39 40 41 42 43 44 45 46 47 48 49 50
000
ASUS43 KLOT 211406
RWRIL

ILLINOIS REGIONAL WEATHER ROUNDUP
NATIONAL WEATHER SERVICE CHICAGO/ROMEOVILLE IL
900 AM CDT THU AUG 21 2014

NOTE: "FAIR" INDICATES FEW OR NO CLOUDS BELOW 12,000 FEET WITH NO
SIGNIFICANT WEATHER AND/OR OBSTRUCTIONS TO VISIBILITY.

* THESE STATIONS ARE NOT UNDER NWS QUALITY CONTROL. THEY ALSO MAY NOT
  REPORT WEATHER SUCH AS PRECIPITATION OR FOG.

ILZ001-002-007-009-015-016-024-211500-
NORTHWEST ILLINOIS

CITY           SKY/WX    TMP DP  RH WIND       PRES   REMARKS
MOLINE         CLOUDY    76  69  79 CALM      29.91S
STERLING*      CLOUDY    72  70  94 SE7       29.95S
SAVANNA*       CLOUDY    72  69  90 SE5       29.93R
$$

ILZ003-004-008-010-011-017-018-211500-
NORTH CENTRAL ILLINOIS

CITY           SKY/WX    TMP DP  RH WIND       PRES   REMARKS
ROCKFORD       CLOUDY    71  69  93 S10       29.95S
FREEPORT*      CLOUDY    70  69  96 S7        29.95F
ROCHELLE*      CLOUDY    72  69  93 SE8       29.95F
DE KALB*       CLOUDY    69  68  97 S8        29.96F
PERU*          CLOUDY    73  70  92 E8        29.98R
$$

ILZ005-006-012>014-019>023-211500-
NORTHEAST ILLINOIS

CITY           SKY/WX    TMP DP  RH WIND       PRES   REMARKS
CHICAGO-OHARE  LGT RAIN  72  68  87 CALM      29.96F FOG
CHICAGO-MIDWAY RAIN      74  73  97 S7        29.98S FOG
AURORA         CLOUDY    71  68  90 SE7       29.96F
LANSING*       TSTM      72  70  95 CALM      29.99S
JOLIET*        CLOUDY    71  69  94 SE3       29.98F
WAUKEGAN       CLOUDY    72  69  90 S6        29.95F
DUPAGE AIRPORT LGT RAIN  70  69  97 S9        29.95F
KANKAKEE*      CLOUDY    71  70  98 E5        30.01R
WHEELING       LGT RAIN  73  69  87 S7        29.97F
MORRIS*        CLOUDY    73  73 100 SE5       29.97F FOG
ROMEOVILLE*    LGT RAIN  70  70 100 SE6       29.98F
NORTHERLY ISL    N/A     72  69  90 W1          N/A
$$

LMZ740>746-211500-
SOUTHERN LAKE MICHIGAN

STATION/POSITION SKY/WX   TEMP    WIND        PRES    VSBY  WAVE
                          AIR SEA DIR/SP/G                  HT/PER
                          (F)     (DEG/KT/KT) (MB)    (MI)  (FT/S)
SOUTHERN BUOY              69 68  190/  4/  6 1015.3R         0
WAUKEGAN HARBOR            72     230/  7/ 10   N/A
HARRISON CRIB              71     240/  6/  9   N/A
BURNHAM HARBOR             72     180/  4/  9   N/A
CALUMET HARBOR             71     210/  4/  8 1014.6S
BURNS HARBOR               72     230/  6/ 12   N/A
MICHIGAN CITY              71     200/ 12/ 14   N/A
MICHIGAN CITY 6N           71 70  230/ 10/ 12   N/A           1/ 2
ST. JOSEPH                 71 71  230/  4/  6   N/A           1/ 3
$$

ILZ025>027-034>036-040-047-049-050-058-095>099-211500-
WEST-CENTRAL ILLINOIS

CITY           SKY/WX    TMP DP  RH WIND       PRES   REMARKS
QUINCY         MOSUNNY   78  69  73 SW13G21   29.95S HX  80
GALESBURG*     CLOUDY    75  71  87 S6        29.93F
MACOMB*        PTSUNNY   75  71  85 SW8       29.96S
JACKSONVILLE*  MOSUNNY   79  71  77 SW12      29.98S HX  82
PITTSFIELD*    SUNNY     80  70  71 SW6       29.99R HX  83
$$

ILZ028>032-037-038-041>044-048-051>054-059>061-211500-
CENTRAL ILLINOIS

CITY           SKY/WX    TMP DP  RH WIND       PRES   REMARKS
PONTIAC        CLOUDY    75  73  94 SE3       29.96F
DECATUR        MOSUNNY   79  71  76 SW10      30.00R HX  82
PEORIA         CLOUDY    77  71  82 S6        29.95S
LACON*         CLOUDY    75  71  86 CALM      29.94S
LINCOLN*       MOSUNNY   80  71  74 CALM      29.95R HX  83
SPRINGFIELD    MOSUNNY   81  71  71 SW9       29.98R HX  85
TAYLORVILLE    MOSUNNY   77  72  83 SW8       30.01R
$$

ILZ033-039-045-046-055>057-062-063-211500-
EAST-CENTRAL ILLINOIS

CITY           SKY/WX    TMP DP  RH WIND       PRES   REMARKS
CHAMPAIGN      PTSUNNY   77  73  87 SW7       30.00R
DANVILLE*      RAIN      74  72  92 W3        29.97S
RANTOUL*       CLOUDY    77  71  82 CALM      29.99F
MATTOON        MOSUNNY   79  72  79 SW10      30.02R HX  82
PARIS*         PTSUNNY   78  74  88 SW7       30.02R HX  81
$$

ILZ079-100>102-211500-
SOUTHWEST ILLINOIS

CITY           SKY/WX    TMP DP  RH WIND       PRES   REMARKS
ALTON          MOSUNNY   79  75  89 SW12      30.01R HX  82
BELLEVILLE     MOSUNNY   79  75  88 SE1       30.00S HX  82
CAHOKIA*       SUNNY     80  71  74 SW7       30.00S HX  84
SPARTA*        SUNNY     80  74  81 S6        30.04R HX  84
$$

ILZ064>066-069>071-074>076-080>082-084>086-088>090-092>094-211500-
SOUTH-CENTRAL ILLINOIS

CITY           SKY/WX    TMP DP  RH WIND       PRES   REMARKS
CARBONDALE     MOSUNNY   81  73  76 SW7       30.04R HX  86
CAIRO*         SUNNY     83  74  73 SW9       30.06R HX  89
MARION         MOSUNNY   82  75  78 SW9       30.06R HX  89
MT. VERNON     SUNNY     81  73  78 SW10      30.04R HX  85
CENTRALIA*     SUNNY     83  72  69 SW8       30.03S HX  88
SALEM*         SUNNY     82  75  80 SW10      30.03R HX  88
$$

ILZ067-068-072-073-078-083-087-091-211500-
SOUTHEAST ILLINOIS

CITY           SKY/WX    TMP DP  RH WIND       PRES   REMARKS
LAWRENCEVILLE  CLOUDY    79  74  84 SW10      30.04R HX  82
FLORA*         SUNNY     79  74  85 SW7       30.04R HX  83
FAIRFIELD*     MOSUNNY   81  77  89 SW6       30.04R HX  88
HARRISBURG*    MOSUNNY   80  75  85 SW8       30.06R HX  85
ROBINSON*      MOSUNNY   78  75  89 SW7       30.03R HX  81
CARMI*         MOSUNNY   81  77  89 SW6       30.05R HX  88
$$

ABBREVIATIONS USED IN REMARKS
   TC - TEMPERATURE IN CELSIUS
  WCI - WIND CHILL INDEX
   HX - HEAT INDEX
  VSB - VISIBILITY
$$




USA.gov is the U.S. government's official web portal to all federal, state and local government web resources and services.